Location: Peterborough
(44.3091°N, 78.3197°W)
Time: 19:30:17
(UTC-04:00)

Altair - Pass Details

Date: 30 March 2023
Orbit: 1501 x 1682 km, 47.2° (Epoch: 04 June)

Event Time Altitude Azimuth Distance (km) Brightness Sun altitude
Exits shadow 03:56:19 23° 162° (SSE) 2,852 8.6 -30.3°
Maximum altitude 03:59:35 28° 132° (SE) 2,584 8.7 -29.9°
Drops below altitude 10° 04:07:04 10° 78° (ENE) 3,695 10.2 -28.9°
Sets 04:10:35 0° 68° (ENE) 4,663 11.1 -28.4°
